Climatologie pour Saint-Brevin les Pins
Jour • Résumé pour mai 9, 2017 Système :  Métrique    Anglais   Mixte
« - 1 jour
+ 1 jour »
Jour Semaine Mois Année Personnalisé
  Maximum : Minimum : Moyenne :
Température sous abri : 18.8 °C 7.2 °C 12.7 °C
Point de rosée : 10.1 °C 5.7 °C 7.7 °C
Humidité : 93 % 50 % 74 %
Vitesse du vent : 35.4 km/h 0.0 km/h 10.6 km/h
Rafale : 41.8 km/h - -
Direction :- - East
Pression : 1022.9 hPa 1009.0 hPa -
Précipitations : 0.0 mm    
Historical Graphs
 
 
Tableau de données pour mai 9, 2017
Heure Tempé Pt rosée Pression Vent Vitesse Rafale Humidité Taux pluie (/hr) Soleil
00:00 10.1 °C 7.2 °C 1022.9 hPa East 8.0 km/h 22.5 km/h 82 % 0.0 mm 0 W/m2
00:10 9.9 °C 7.0 °C 1022.9 hPa East 11.3 km/h 19.3 km/h 82 % 0.0 mm 0 W/m2
00:15 9.9 °C 7.0 °C 1022.9 hPa ENE 6.4 km/h 24.1 km/h 82 % 0.0 mm 0 W/m2
00:20 9.8 °C 6.8 °C 1022.9 hPa ENE 14.5 km/h 24.1 km/h 82 % 0.0 mm 0 W/m2
00:25 9.7 °C 6.9 °C 1022.9 hPa East 9.7 km/h 16.1 km/h 83 % 0.0 mm 0 W/m2
00:30 9.6 °C 6.8 °C 1022.9 hPa ESE 11.3 km/h 17.7 km/h 83 % 0.0 mm 0 W/m2
00:35 9.4 °C 6.7 °C 1022.9 hPa ENE 14.5 km/h 17.7 km/h 83 % 0.0 mm 0 W/m2
00:40 9.3 °C 6.8 °C 1022.9 hPa NE 4.8 km/h 16.1 km/h 84 % 0.0 mm 0 W/m2
00:45 9.2 °C 6.7 °C 1022.9 hPa East 3.2 km/h 17.7 km/h 84 % 0.0 mm 0 W/m2
00:50 9.1 °C 6.7 °C 1022.6 hPa East 9.7 km/h 17.7 km/h 85 % 0.0 mm 0 W/m2
00:55 9.1 °C 6.8 °C 1022.6 hPa East 9.7 km/h 16.1 km/h 86 % 0.0 mm 0 W/m2
01:00 9.0 °C 6.8 °C 1022.6 hPa ENE 4.8 km/h 17.7 km/h 86 % 0.0 mm 0 W/m2
01:05 8.9 °C 6.7 °C 1022.6 hPa East 14.5 km/h 17.7 km/h 86 % 0.0 mm 0 W/m2
01:10 8.9 °C 6.7 °C 1022.6 hPa ENE 4.8 km/h 16.1 km/h 86 % 0.0 mm 0 W/m2
01:15 8.9 °C 6.7 °C 1022.6 hPa ENE 11.3 km/h 16.1 km/h 86 % 0.0 mm 0 W/m2
01:20 8.9 °C 6.7 °C 1022.6 hPa ENE 17.7 km/h 17.7 km/h 86 % 0.0 mm 0 W/m2
01:25 8.8 °C 6.6 °C 1022.6 hPa NNE 3.2 km/h 20.9 km/h 86 % 0.0 mm 0 W/m2
01:30 8.7 °C 6.7 °C 1022.6 hPa ENE 4.8 km/h 20.9 km/h 87 % 0.0 mm 0 W/m2
01:35 8.7 °C 6.6 °C 1022.6 hPa ENE 16.1 km/h 16.1 km/h 87 % 0.0 mm 0 W/m2
01:40 8.7 °C 6.6 °C 1022.6 hPa ENE 8.0 km/h 17.7 km/h 87 % 0.0 mm 0 W/m2
01:45 8.6 °C 6.6 °C 1022.6 hPa East 9.7 km/h 17.7 km/h 87 % 0.0 mm 0 W/m2
01:50 8.6 °C 6.6 °C 1022.6 hPa ENE 6.4 km/h 16.1 km/h 87 % 0.0 mm 0 W/m2
01:55 8.6 °C 6.5 °C 1022.6 hPa ENE 6.4 km/h 17.7 km/h 87 % 0.0 mm 0 W/m2
02:00 8.4 °C 6.5 °C 1022.2 hPa ENE 3.2 km/h 17.7 km/h 87 % 0.0 mm 0 W/m2
02:05 8.3 °C 6.3 °C 1022.2 hPa East 8.0 km/h 14.5 km/h 87 % 0.0 mm 0 W/m2
02:10 8.3 °C 6.4 °C 1022.2 hPa NE 11.3 km/h 14.5 km/h 88 % 0.0 mm 0 W/m2
02:15 8.2 °C 6.4 °C 1022.2 hPa ENE 4.8 km/h 14.5 km/h 88 % 0.0 mm 0 W/m2
02:20 8.2 °C 6.3 °C 1021.9 hPa ENE 3.2 km/h 14.5 km/h 88 % 0.0 mm 0 W/m2
02:25 8.1 °C 6.4 °C 1021.9 hPa NE 3.2 km/h 14.5 km/h 89 % 0.0 mm 0 W/m2
02:30 8.1 °C 6.4 °C 1021.9 hPa ENE 4.8 km/h 12.9 km/h 89 % 0.0 mm 0 W/m2
02:40 7.9 °C 6.2 °C 1021.6 hPa ENE 3.2 km/h 14.5 km/h 89 % 0.0 mm 0 W/m2
02:45 7.9 °C 6.2 °C 1021.9 hPa ENE 6.4 km/h 12.9 km/h 89 % 0.0 mm 0 W/m2
02:50 8.0 °C 6.3 °C 1021.6 hPa ENE 4.8 km/h 14.5 km/h 89 % 0.0 mm 0 W/m2
02:55 8.1 °C 6.4 °C 1021.6 hPa ESE 8.0 km/h 14.5 km/h 89 % 0.0 mm 0 W/m2
03:00 8.0 °C 6.3 °C 1021.6 hPa ENE 8.0 km/h 14.5 km/h 89 % 0.0 mm 0 W/m2
03:05 8.1 °C 6.4 °C 1021.6 hPa NE 6.4 km/h 17.7 km/h 89 % 0.0 mm 0 W/m2
03:10 8.1 °C 6.2 °C 1021.6 hPa ENE 8.0 km/h 17.7 km/h 88 % 0.0 mm 0 W/m2
03:15 8.2 °C 6.3 °C 1021.6 hPa ENE 3.2 km/h 16.1 km/h 88 % 0.0 mm 0 W/m2
03:20 8.1 °C 6.1 °C 1021.6 hPa ENE 11.3 km/h 16.1 km/h 87 % 0.0 mm 0 W/m2
03:25 7.9 °C 6.1 °C 1021.2 hPa ENE 6.4 km/h 14.5 km/h 88 % 0.0 mm 0 W/m2
03:30 7.8 °C 5.9 °C 1021.2 hPa East 8.0 km/h 14.5 km/h 88 % 0.0 mm 0 W/m2
03:35 7.7 °C 6.0 °C 1021.2 hPa ENE 8.0 km/h 14.5 km/h 89 % 0.0 mm 0 W/m2
03:40 7.7 °C 6.0 °C 1021.2 hPa ENE 8.0 km/h 14.5 km/h 89 % 0.0 mm 0 W/m2
03:45 7.7 °C 6.0 °C 1021.2 hPa East 1.6 km/h 11.3 km/h 89 % 0.0 mm 0 W/m2
03:50 7.6 °C 5.9 °C 1021.2 hPa NE 1.6 km/h 11.3 km/h 89 % 0.0 mm 0 W/m2
03:55 7.5 °C 6.0 °C 1021.2 hPa NE 1.6 km/h 11.3 km/h 90 % 0.0 mm 0 W/m2
04:00 7.4 °C 5.9 °C 1021.2 hPa NE 1.6 km/h 9.7 km/h 90 % 0.0 mm 0 W/m2
04:05 7.3 °C 5.7 °C 1021.2 hPa ENE 1.6 km/h 9.7 km/h 90 % 0.0 mm 0 W/m2
04:10 7.2 °C 5.9 °C 1021.2 hPa ENE 8.0 km/h 9.7 km/h 91 % 0.0 mm 0 W/m2
04:15 7.4 °C 6.0 °C 1021.2 hPa ENE 1.6 km/h 12.9 km/h 91 % 0.0 mm 0 W/m2
04:20 7.4 °C 6.1 °C 1020.9 hPa East 9.7 km/h 12.9 km/h 91 % 0.0 mm 0 W/m2
04:30 7.6 °C 6.2 °C 1020.9 hPa NNE 4.8 km/h 16.1 km/h 91 % 0.0 mm 0 W/m2
04:35 7.6 °C 6.2 °C 1020.9 hPa ENE 1.6 km/h 16.1 km/h 91 % 0.0 mm 0 W/m2
04:40 7.6 °C 6.2 °C 1020.9 hPa East 1.6 km/h 11.3 km/h 91 % 0.0 mm 0 W/m2
04:45 7.7 °C 6.3 °C 1020.9 hPa East 3.2 km/h 12.9 km/h 91 % 0.0 mm 0 W/m2
04:50 7.7 °C 6.3 °C 1020.9 hPa ENE 6.4 km/h 12.9 km/h 91 % 0.0 mm 0 W/m2
04:55 7.6 °C 6.2 °C 1020.9 hPa ENE 3.2 km/h 12.9 km/h 91 % 0.0 mm 0 W/m2
05:00 7.6 °C 6.2 °C 1020.9 hPa Calm   12.9 km/h 91 % 0.0 mm 0 W/m2
05:05 7.6 °C 6.2 °C 1020.9 hPa Calm   11.3 km/h 91 % 0.0 mm 0 W/m2
05:10 7.6 °C 6.3 °C 1020.9 hPa ENE 6.4 km/h 12.9 km/h 92 % 0.0 mm 0 W/m2
05:15 7.6 °C 6.3 °C 1020.9 hPa East 8.0 km/h 12.9 km/h 92 % 0.0 mm 0 W/m2
05:20 7.6 °C 6.3 °C 1020.9 hPa East 4.8 km/h 9.7 km/h 92 % 0.0 mm 0 W/m2
05:25 7.7 °C 6.4 °C 1020.9 hPa East 1.6 km/h 9.7 km/h 92 % 0.0 mm 0 W/m2
05:30 7.7 °C 6.5 °C 1020.9 hPa East 4.8 km/h 6.4 km/h 92 % 0.0 mm 0 W/m2
05:35 7.8 °C 6.6 °C 1020.5 hPa NE 3.2 km/h 8.0 km/h 92 % 0.0 mm 0 W/m2
05:40 7.9 °C 6.7 °C 1020.5 hPa ENE 3.2 km/h 8.0 km/h 92 % 0.0 mm 0 W/m2
05:45 7.9 °C 6.7 °C 1020.5 hPa NE 3.2 km/h 8.0 km/h 92 % 0.0 mm 0 W/m2
05:50 8.0 °C 6.8 °C 1020.5 hPa NE 6.4 km/h 11.3 km/h 92 % 0.0 mm 0 W/m2
05:55 8.1 °C 6.8 °C 1020.5 hPa ENE 1.6 km/h 11.3 km/h 92 % 0.0 mm 0 W/m2
06:00 8.1 °C 6.9 °C 1020.5 hPa ENE 6.4 km/h 12.9 km/h 92 % 0.0 mm 0 W/m2
06:05 8.2 °C 6.9 °C 1020.5 hPa East 4.8 km/h 12.9 km/h 92 % 0.0 mm 0 W/m2
06:10 8.2 °C 6.9 °C 1020.5 hPa Calm   12.9 km/h 92 % 0.0 mm 0 W/m2
06:15 8.2 °C 7.0 °C 1020.5 hPa East 4.8 km/h 12.9 km/h 92 % 0.0 mm 0 W/m2
06:20 8.3 °C 7.1 °C 1020.5 hPa ENE 12.9 km/h 12.9 km/h 92 % 0.0 mm 0 W/m2
06:25 8.4 °C 7.4 °C 1020.5 hPa East 6.4 km/h 12.9 km/h 93 % 0.0 mm 0 W/m2
06:30 8.6 °C 7.3 °C 1020.2 hPa NE 3.2 km/h 14.5 km/h 92 % 0.0 mm 0 W/m2
06:35 8.6 °C 7.3 °C 1020.2 hPa ENE 11.3 km/h 17.7 km/h 92 % 0.0 mm 0 W/m2
06:40 8.7 °C 7.4 °C 1020.2 hPa ENE 3.2 km/h 17.7 km/h 92 % 0.0 mm 0 W/m2
06:45 8.7 °C 7.5 °C 1020.2 hPa East 4.8 km/h 17.7 km/h 92 % 0.0 mm 0 W/m2
06:50 8.8 °C 7.6 °C 1020.2 hPa NE 1.6 km/h 17.7 km/h 92 % 0.0 mm 5 W/m2
06:55 8.9 °C 7.7 °C 1020.2 hPa ENE 1.6 km/h 14.5 km/h 92 % 0.0 mm 9 W/m2
07:00 8.9 °C 7.7 °C 1020.2 hPa East 12.9 km/h 12.9 km/h 92 % 0.0 mm 14 W/m2
07:05 9.0 °C 7.8 °C 1020.2 hPa ENE 1.6 km/h 14.5 km/h 92 % 0.0 mm 21 W/m2
07:10 9.1 °C 7.8 °C 1020.2 hPa NE 8.0 km/h 14.5 km/h 92 % 0.0 mm 23 W/m2
07:15 9.1 °C 7.8 °C 1020.2 hPa ESE 4.8 km/h 14.5 km/h 92 % 0.0 mm 30 W/m2
07:20 9.1 °C 7.9 °C 1020.2 hPa East 9.7 km/h 19.3 km/h 92 % 0.0 mm 60 W/m2
07:25 9.2 °C 8.0 °C 1020.2 hPa NE 9.7 km/h 19.3 km/h 92 % 0.0 mm 42 W/m2
07:30 9.2 °C 7.8 °C 1020.2 hPa ENE 9.7 km/h 16.1 km/h 91 % 0.0 mm 44 W/m2
07:35 9.0 °C 7.6 °C 1020.2 hPa ENE 3.2 km/h 16.1 km/h 91 % 0.0 mm 49 W/m2
07:40 8.9 °C 7.6 °C 1020.2 hPa East 14.5 km/h 17.7 km/h 91 % 0.0 mm 53 W/m2
07:45 8.9 °C 7.6 °C 1020.2 hPa NE 3.2 km/h 19.3 km/h 91 % 0.0 mm 62 W/m2
07:50 8.9 °C 7.6 °C 1020.2 hPa NE 1.6 km/h 19.3 km/h 91 % 0.0 mm 60 W/m2
07:55 9.0 °C 7.6 °C 1020.2 hPa East 3.2 km/h 16.1 km/h 91 % 0.0 mm 63 W/m2
08:00 9.1 °C 7.7 °C 1020.2 hPa NE 3.2 km/h 12.9 km/h 91 % 0.0 mm 69 W/m2
08:05 9.1 °C 7.7 °C 1020.2 hPa ENE 8.0 km/h 16.1 km/h 91 % 0.0 mm 72 W/m2
08:10 9.1 °C 7.7 °C 1020.2 hPa ENE 17.7 km/h 17.7 km/h 91 % 0.0 mm 74 W/m2
08:15 9.1 °C 7.7 °C 1019.9 hPa SE 3.2 km/h 19.3 km/h 91 % 0.0 mm 77 W/m2
08:20 9.2 °C 7.7 °C 1019.9 hPa ENE 3.2 km/h 19.3 km/h 90 % 0.0 mm 83 W/m2
08:25 9.3 °C 7.8 °C 1019.9 hPa East 8.0 km/h 16.1 km/h 90 % 0.0 mm 86 W/m2
08:30 9.4 °C 7.9 °C 1019.9 hPa East 11.3 km/h 16.1 km/h 90 % 0.0 mm 174 W/m2
08:35 9.6 °C 8.0 °C 1019.9 hPa East 8.0 km/h 22.5 km/h 90 % 0.0 mm 269 W/m2
08:40 9.8 °C 8.1 °C 1019.9 hPa ESE 9.7 km/h 22.5 km/h 89 % 0.0 mm 267 W/m2
08:45 10.1 °C 8.2 °C 1019.9 hPa ENE 12.9 km/h 16.1 km/h 88 % 0.0 mm 276 W/m2
08:50 10.2 °C 8.2 °C 1019.9 hPa ENE 1.6 km/h 16.1 km/h 87 % 0.0 mm 288 W/m2
08:55 10.4 °C 8.1 °C 1019.9 hPa NE 4.8 km/h 17.7 km/h 86 % 0.0 mm 281 W/m2
09:00 10.5 °C 8.3 °C 1019.9 hPa ENE 17.7 km/h 22.5 km/h 86 % 0.0 mm 323 W/m2
09:05 10.6 °C 8.1 °C 1019.9 hPa ENE 12.9 km/h 22.5 km/h 85 % 0.0 mm 346 W/m2
09:10 10.8 °C 8.4 °C 1019.5 hPa ESE 8.0 km/h 22.5 km/h 85 % 0.0 mm 260 W/m2
09:15 11.0 °C 8.6 °C 1019.5 hPa East 9.7 km/h 17.7 km/h 85 % 0.0 mm 364 W/m2
09:20 11.1 °C 8.3 °C 1019.5 hPa ENE 14.5 km/h 24.1 km/h 83 % 0.0 mm 179 W/m2
09:25 10.9 °C 8.2 °C 1019.5 hPa ESE 12.9 km/h 25.7 km/h 83 % 0.0 mm 144 W/m2
09:30 10.9 °C 8.1 °C 1019.5 hPa East 17.7 km/h 25.7 km/h 83 % 0.0 mm 123 W/m2
09:35 10.9 °C 8.1 °C 1019.5 hPa East 12.9 km/h 24.1 km/h 83 % 0.0 mm 508 W/m2
09:40 11.2 °C 8.6 °C 1019.2 hPa East 8.0 km/h 24.1 km/h 84 % 0.0 mm 359 W/m2
09:45 11.2 °C 8.4 °C 1019.2 hPa ENE 11.3 km/h 24.1 km/h 83 % 0.0 mm 188 W/m2
09:50 11.1 °C 8.1 °C 1019.2 hPa ENE 16.1 km/h 24.1 km/h 82 % 0.0 mm 269 W/m2
09:55 11.3 °C 8.5 °C 1019.2 hPa East 12.9 km/h 24.1 km/h 83 % 0.0 mm 258 W/m2
10:00 11.6 °C 8.4 °C 1019.2 hPa East 11.3 km/h 20.9 km/h 81 % 0.0 mm 237 W/m2
10:10 11.8 °C 8.9 °C 1019.2 hPa East 8.0 km/h 20.9 km/h 82 % 0.0 mm 371 W/m2
10:20 11.9 °C 8.8 °C 1018.8 hPa ENE 17.7 km/h 24.1 km/h 81 % 0.0 mm 188 W/m2
10:25 11.9 °C 8.8 °C 1018.8 hPa East 12.9 km/h 29.0 km/h 81 % 0.0 mm 302 W/m2
10:30 12.3 °C 9.2 °C 1018.8 hPa ESE 17.7 km/h 29.0 km/h 81 % 0.0 mm 724 W/m2
10:35 12.8 °C 9.2 °C 1018.8 hPa ESE 11.3 km/h 29.0 km/h 79 % 0.0 mm 675 W/m2
10:40 12.7 °C 8.9 °C 1018.8 hPa East 8.0 km/h 25.7 km/h 78 % 0.0 mm 197 W/m2
10:45 12.2 °C 8.3 °C 1018.5 hPa ENE 8.0 km/h 25.7 km/h 77 % 0.0 mm 250 W/m2
10:50 11.9 °C 8.2 °C 1018.8 hPa East 12.9 km/h 24.1 km/h 78 % 0.0 mm 190 W/m2
10:55 11.8 °C 8.1 °C 1018.5 hPa East 24.1 km/h 25.7 km/h 78 % 0.0 mm 260 W/m2
11:00 12.4 °C 9.1 °C 1018.5 hPa NE 8.0 km/h 25.7 km/h 80 % 0.0 mm 376 W/m2
11:05 12.9 °C 8.6 °C 1018.5 hPa ENE 19.3 km/h 30.6 km/h 75 % 0.0 mm 754 W/m2
11:10 13.1 °C 8.3 °C 1018.5 hPa ENE 1.6 km/h 30.6 km/h 73 % 0.0 mm 729 W/m2
11:15 13.5 °C 9.2 °C 1018.5 hPa ENE 20.9 km/h 30.6 km/h 75 % 0.0 mm 740 W/m2
11:20 13.7 °C 9.3 °C 1018.5 hPa ENE 12.9 km/h 29.0 km/h 75 % 0.0 mm 846 W/m2
11:25 14.3 °C 9.8 °C 1018.2 hPa SE 11.3 km/h 24.1 km/h 74 % 0.0 mm 814 W/m2
11:30 14.1 °C 9.1 °C 1018.2 hPa ENE 30.6 km/h 30.6 km/h 72 % 0.0 mm 798 W/m2
11:35 14.2 °C 9.0 °C 1018.2 hPa ENE 22.5 km/h 32.2 km/h 71 % 0.0 mm 817 W/m2
11:40 14.1 °C 8.7 °C 1018.2 hPa East 8.0 km/h 32.2 km/h 70 % 0.0 mm 786 W/m2
11:45 14.3 °C 8.9 °C 1018.2 hPa ENE 16.1 km/h 29.0 km/h 70 % 0.0 mm 796 W/m2
11:50 13.9 °C 8.9 °C 1018.2 hPa North 12.9 km/h 22.5 km/h 72 % 0.0 mm 847 W/m2
11:55 13.9 °C 8.8 °C 1018.2 hPa ENE 17.7 km/h 27.4 km/h 71 % 0.0 mm 795 W/m2
12:00 13.9 °C 8.5 °C 1017.8 hPa NNE 12.9 km/h 30.6 km/h 70 % 0.0 mm 722 W/m2
12:05 14.3 °C 9.6 °C 1017.8 hPa East 9.7 km/h 30.6 km/h 73 % 0.0 mm 844 W/m2
12:10 14.4 °C 9.0 °C 1017.8 hPa East 20.9 km/h 35.4 km/h 70 % 0.0 mm 833 W/m2
12:15 14.3 °C 9.5 °C 1017.8 hPa East 11.3 km/h 35.4 km/h 73 % 0.0 mm 970 W/m2
12:20 14.8 °C 9.8 °C 1017.8 hPa East 20.9 km/h 30.6 km/h 72 % 0.0 mm 872 W/m2
12:25 14.7 °C 9.7 °C 1017.5 hPa East 22.5 km/h 29.0 km/h 72 % 0.0 mm 856 W/m2
12:30 14.6 °C 9.0 °C 1017.5 hPa NE 16.1 km/h 33.8 km/h 69 % 0.0 mm 877 W/m2
12:35 14.7 °C 9.5 °C 1017.5 hPa ENE 14.5 km/h 33.8 km/h 71 % 0.0 mm 889 W/m2
12:40 15.1 °C 10.1 °C 1017.2 hPa NE 25.7 km/h 29.0 km/h 72 % 0.0 mm 923 W/m2
12:45 15.1 °C 9.5 °C 1017.2 hPa ESE 8.0 km/h 35.4 km/h 69 % 0.0 mm 868 W/m2
12:50 15.2 °C 9.8 °C 1017.2 hPa ESE 16.1 km/h 35.4 km/h 70 % 0.0 mm 838 W/m2
12:55 15.3 °C 9.2 °C 1017.2 hPa SE 9.7 km/h 32.2 km/h 67 % 0.0 mm 904 W/m2
13:00 15.3 °C 9.6 °C 1017.2 hPa ESE 22.5 km/h 32.2 km/h 69 % 0.0 mm 946 W/m2
13:05 15.6 °C 9.2 °C 1016.8 hPa East 16.1 km/h 25.7 km/h 66 % 0.0 mm 1007 W/m2
13:10 15.2 °C 9.1 °C 1016.8 hPa East 16.1 km/h 29.0 km/h 67 % 0.0 mm 1000 W/m2
13:15 15.1 °C 8.8 °C 1016.8 hPa East 29.0 km/h 29.0 km/h 66 % 0.0 mm 313 W/m2
13:20 14.9 °C 9.2 °C 1016.8 hPa ENE 4.8 km/h 33.8 km/h 69 % 0.0 mm 923 W/m2
13:25 15.4 °C 9.1 °C 1016.8 hPa ENE 20.9 km/h 33.8 km/h 66 % 0.0 mm 311 W/m2
13:30 14.9 °C 9.1 °C 1016.5 hPa ENE 19.3 km/h 30.6 km/h 68 % 0.0 mm 960 W/m2
13:35 15.1 °C 9.2 °C 1016.5 hPa ESE 35.4 km/h 35.4 km/h 68 % 0.0 mm 947 W/m2
13:40 15.4 °C 9.1 °C 1016.5 hPa East 11.3 km/h 35.4 km/h 66 % 0.0 mm 939 W/m2
13:45 15.9 °C 9.1 °C 1016.5 hPa SE 14.5 km/h 35.4 km/h 64 % 0.0 mm 946 W/m2
13:50 15.7 °C 9.1 °C 1016.5 hPa NE 12.9 km/h 29.0 km/h 65 % 0.0 mm 925 W/m2
13:55 16.0 °C 9.4 °C 1016.1 hPa East 9.7 km/h 27.4 km/h 65 % 0.0 mm 940 W/m2
14:00 16.4 °C 8.6 °C 1016.1 hPa ESE 20.9 km/h 32.2 km/h 60 % 0.0 mm 932 W/m2
14:05 16.5 °C 9.2 °C 1016.1 hPa ENE 12.9 km/h 32.2 km/h 62 % 0.0 mm 991 W/m2
14:10 16.4 °C 8.7 °C 1016.1 hPa East 25.7 km/h 32.2 km/h 60 % 0.0 mm 940 W/m2
14:15 16.1 °C 8.0 °C 1016.1 hPa ENE 14.5 km/h 35.4 km/h 59 % 0.0 mm 958 W/m2
14:20 16.2 °C 9.3 °C 1015.8 hPa ENE 22.5 km/h 35.4 km/h 64 % 0.0 mm 981 W/m2
14:25 17.1 °C 9.5 °C 1015.8 hPa ENE 19.3 km/h 30.6 km/h 61 % 0.0 mm 956 W/m2
14:30 16.7 °C 8.7 °C 1015.8 hPa SE 24.1 km/h 35.4 km/h 59 % 0.0 mm 954 W/m2
14:35 16.8 °C 9.5 °C 1015.8 hPa ENE 17.7 km/h 35.4 km/h 62 % 0.0 mm 986 W/m2
14:40 16.7 °C 8.7 °C 1015.5 hPa East 22.5 km/h 33.8 km/h 59 % 0.0 mm 367 W/m2
14:45 16.2 °C 9.4 °C 1015.5 hPa NNE 4.8 km/h 33.8 km/h 64 % 0.0 mm 367 W/m2
14:50 16.9 °C 9.4 °C 1015.5 hPa SE 6.4 km/h 27.4 km/h 61 % 0.0 mm 956 W/m2
14:55 17.3 °C 8.9 °C 1015.5 hPa ENE 11.3 km/h 27.4 km/h 58 % 0.0 mm 1037 W/m2
15:00 17.4 °C 8.8 °C 1015.1 hPa East 19.3 km/h 25.7 km/h 57 % 0.0 mm 870 W/m2
15:05 16.6 °C 8.3 °C 1015.1 hPa ENE 17.7 km/h 29.0 km/h 58 % 0.0 mm 972 W/m2
15:10 17.1 °C 8.5 °C 1015.1 hPa East 20.9 km/h 30.6 km/h 57 % 0.0 mm 988 W/m2
15:19 17.1 °C 8.8 °C 1015.1 hPa ENE 20.9 km/h 20.9 km/h 58 % 0.0 mm 925 W/m2
15:25 17.3 °C 7.7 °C 1014.8 hPa East 22.5 km/h 41.8 km/h 53 % 0.0 mm 874 W/m2
15:30 17.4 °C 8.8 °C 1014.8 hPa East 8.0 km/h 41.8 km/h 57 % 0.0 mm 861 W/m2
15:40 18.4 °C 9.4 °C 1014.4 hPa ENE 11.3 km/h 25.7 km/h 56 % 0.0 mm 904 W/m2
15:45 18.1 °C 9.4 °C 1014.4 hPa NNE 12.9 km/h 25.7 km/h 57 % 0.0 mm 278 W/m2
15:50 17.7 °C 8.6 °C 1014.4 hPa NE 11.3 km/h 27.4 km/h 55 % 0.0 mm 824 W/m2
16:00 18.2 °C 8.8 °C 1014.1 hPa ENE 8.0 km/h 32.2 km/h 54 % 0.0 mm 796 W/m2
16:05 17.9 °C 8.5 °C 1014.1 hPa NNE 8.0 km/h 32.2 km/h 54 % 0.0 mm 782 W/m2
16:10 18.1 °C 8.7 °C 1014.1 hPa East 14.5 km/h 32.2 km/h 54 % 0.0 mm 772 W/m2
16:15 17.9 °C 8.5 °C 1014.1 hPa SE 8.0 km/h 33.8 km/h 54 % 0.0 mm 763 W/m2
16:20 18.4 °C 9.4 °C 1013.8 hPa East 14.5 km/h 33.8 km/h 56 % 0.0 mm 791 W/m2
16:25 17.8 °C 8.3 °C 1013.8 hPa SE 6.4 km/h 29.0 km/h 54 % 0.0 mm 733 W/m2
16:30 17.8 °C 8.3 °C 1013.8 hPa East 17.7 km/h 32.2 km/h 54 % 0.0 mm 752 W/m2
16:35 18.1 °C 8.9 °C 1013.4 hPa NE 6.4 km/h 32.2 km/h 55 % 0.0 mm 673 W/m2
16:40 18.1 °C 8.6 °C 1013.4 hPa ESE 14.5 km/h 33.8 km/h 54 % 0.0 mm 722 W/m2
16:45 18.2 °C 9.2 °C 1013.1 hPa East 4.8 km/h 33.8 km/h 56 % 0.0 mm 666 W/m2
16:50 18.4 °C 9.0 °C 1013.1 hPa ENE 14.5 km/h 25.7 km/h 54 % 0.0 mm 680 W/m2
16:55 18.6 °C 9.7 °C 1012.8 hPa ENE 8.0 km/h 25.7 km/h 56 % 0.0 mm 682 W/m2
17:00 18.8 °C 9.3 °C 1012.8 hPa ENE 20.9 km/h 27.4 km/h 54 % 0.0 mm 668 W/m2
17:05 18.5 °C 8.7 °C 1012.8 hPa East 22.5 km/h 30.6 km/h 53 % 0.0 mm 619 W/m2
17:10 18.3 °C 8.8 °C 1012.4 hPa NE 16.1 km/h 30.6 km/h 54 % 0.0 mm 645 W/m2
17:15 18.3 °C 9.1 °C 1012.4 hPa East 6.4 km/h 29.0 km/h 55 % 0.0 mm 628 W/m2
17:20 18.4 °C 8.9 °C 1012.4 hPa East 3.2 km/h 35.4 km/h 54 % 0.0 mm 591 W/m2
17:25 18.3 °C 9.1 °C 1012.4 hPa East 17.7 km/h 35.4 km/h 55 % 0.0 mm 587 W/m2
17:30 18.3 °C 8.5 °C 1012.1 hPa ENE 17.7 km/h 30.6 km/h 53 % 0.0 mm 587 W/m2
17:35 18.6 °C 8.5 °C 1012.1 hPa South 12.9 km/h 29.0 km/h 52 % 0.0 mm 582 W/m2
17:40 18.4 °C 9.2 °C 1011.7 hPa NE 14.5 km/h 30.6 km/h 55 % 0.0 mm 559 W/m2
17:45 18.5 °C 9.3 °C 1011.7 hPa East 14.5 km/h 35.4 km/h 55 % 0.0 mm 554 W/m2
17:50 18.4 °C 9.0 °C 1011.7 hPa ESE 27.4 km/h 35.4 km/h 54 % 0.0 mm 541 W/m2
17:55 18.3 °C 8.6 °C 1011.7 hPa NE 22.5 km/h 33.8 km/h 53 % 0.0 mm 526 W/m2
18:00 18.3 °C 8.3 °C 1011.4 hPa SSE 14.5 km/h 35.4 km/h 52 % 0.0 mm 512 W/m2
18:05 18.6 °C 9.1 °C 1011.4 hPa ENE 22.5 km/h 35.4 km/h 54 % 0.0 mm 497 W/m2
18:10 18.4 °C 8.7 °C 1011.4 hPa ENE 22.5 km/h 30.6 km/h 53 % 0.0 mm 483 W/m2
18:15 18.4 °C 8.4 °C 1011.1 hPa ENE 8.0 km/h 30.6 km/h 52 % 0.0 mm 468 W/m2
18:20 18.4 °C 8.4 °C 1011.1 hPa East 16.1 km/h 29.0 km/h 52 % 0.0 mm 455 W/m2
18:25 18.2 °C 8.5 °C 1011.1 hPa NNE 16.1 km/h 24.1 km/h 53 % 0.0 mm 436 W/m2
18:30 18.2 °C 8.4 °C 1011.1 hPa ENE 20.9 km/h 35.4 km/h 53 % 0.0 mm 397 W/m2
18:35 18.1 °C 8.0 °C 1010.7 hPa NE 11.3 km/h 35.4 km/h 52 % 0.0 mm 406 W/m2
18:45 18.1 °C 8.7 °C 1010.7 hPa ENE 16.1 km/h 38.6 km/h 54 % 0.0 mm 381 W/m2
18:50 18.1 °C 7.8 °C 1010.7 hPa East 20.9 km/h 33.8 km/h 51 % 0.0 mm 369 W/m2
18:55 18.0 °C 8.0 °C 1010.7 hPa ESE 16.1 km/h 30.6 km/h 52 % 0.0 mm 343 W/m2
19:00 17.9 °C 7.9 °C 1010.4 hPa SE 12.9 km/h 29.0 km/h 52 % 0.0 mm 336 W/m2
19:05 17.9 °C 7.7 °C 1010.4 hPa East 12.9 km/h 27.4 km/h 51 % 0.0 mm 323 W/m2
19:10 17.9 °C 7.3 °C 1010.4 hPa East 8.0 km/h 27.4 km/h 50 % 0.0 mm 302 W/m2
19:15 17.8 °C 7.2 °C 1010.4 hPa ESE 20.9 km/h 27.4 km/h 50 % 0.0 mm 294 W/m2
19:20 17.6 °C 7.1 °C 1010.4 hPa ENE 14.5 km/h 30.6 km/h 50 % 0.0 mm 279 W/m2
19:25 17.7 °C 7.4 °C 1010.0 hPa ESE 12.9 km/h 30.6 km/h 51 % 0.0 mm 264 W/m2
19:30 17.5 °C 7.0 °C 1010.0 hPa East 20.9 km/h 30.6 km/h 50 % 0.0 mm 246 W/m2
19:35 17.4 °C 7.1 °C 1010.0 hPa NNE 20.9 km/h 32.2 km/h 51 % 0.0 mm 237 W/m2
19:40 17.3 °C 7.0 °C 1010.0 hPa East 17.7 km/h 35.4 km/h 51 % 0.0 mm 213 W/m2
19:45 17.2 °C 7.2 °C 1009.7 hPa East 12.9 km/h 35.4 km/h 52 % 0.0 mm 188 W/m2
19:50 17.1 °C 7.1 °C 1009.7 hPa East 29.0 km/h 37.0 km/h 52 % 0.0 mm 153 W/m2
19:55 16.9 °C 7.0 °C 1009.7 hPa ENE 19.3 km/h 37.0 km/h 52 % 0.0 mm 149 W/m2
20:00 16.7 °C 7.4 °C 1009.7 hPa ESE 8.0 km/h 29.0 km/h 54 % 0.0 mm 155 W/m2
20:05 16.7 °C 7.0 °C 1009.7 hPa NE 11.3 km/h 27.4 km/h 53 % 0.0 mm 139 W/m2
20:10 16.6 °C 7.0 °C 1009.7 hPa ENE 14.5 km/h 27.4 km/h 53 % 0.0 mm 98 W/m2
20:20 16.3 °C 7.2 °C 1009.7 hPa East 17.7 km/h 29.0 km/h 55 % 0.0 mm 62 W/m2
20:25 16.1 °C 7.1 °C 1009.7 hPa ENE 6.4 km/h 29.0 km/h 55 % 0.0 mm 39 W/m2
20:30 16.0 °C 7.2 °C 1009.7 hPa East 14.5 km/h 29.0 km/h 56 % 0.0 mm 37 W/m2
20:35 15.9 °C 7.4 °C 1009.7 hPa Calm   20.9 km/h 57 % 0.0 mm 35 W/m2
20:40 15.7 °C 7.2 °C 1009.7 hPa ENE 6.4 km/h 22.5 km/h 57 % 0.0 mm 30 W/m2
20:45 15.6 °C 7.1 °C 1009.7 hPa East 8.0 km/h 22.5 km/h 57 % 0.0 mm 30 W/m2
20:50 15.4 °C 7.4 °C 1009.7 hPa ENE 14.5 km/h 20.9 km/h 59 % 0.0 mm 30 W/m2
20:55 15.3 °C 7.3 °C 1009.4 hPa East 12.9 km/h 24.1 km/h 59 % 0.0 mm 26 W/m2
21:00 15.2 °C 7.2 °C 1009.4 hPa East 9.7 km/h 29.0 km/h 59 % 0.0 mm 23 W/m2
21:05 15.1 °C 6.9 °C 1009.4 hPa NE 16.1 km/h 29.0 km/h 58 % 0.0 mm 19 W/m2
21:10 15.1 °C 7.1 °C 1009.4 hPa ESE 6.4 km/h 24.1 km/h 59 % 0.0 mm 16 W/m2
21:15 14.9 °C 7.2 °C 1009.4 hPa East 14.5 km/h 24.1 km/h 60 % 0.0 mm 11 W/m2
21:20 14.8 °C 7.1 °C 1009.0 hPa East 17.7 km/h 24.1 km/h 60 % 0.0 mm 7 W/m2
21:25 14.7 °C 7.0 °C 1009.4 hPa East 14.5 km/h 24.1 km/h 60 % 0.0 mm 5 W/m2
21:30 14.6 °C 6.9 °C 1009.4 hPa ESE 9.7 km/h 24.1 km/h 60 % 0.0 mm 0 W/m2
21:35 14.4 °C 7.0 °C 1009.4 hPa ESE 16.1 km/h 24.1 km/h 61 % 0.0 mm 0 W/m2
21:40 14.2 °C 7.0 °C 1009.4 hPa East 9.7 km/h 19.3 km/h 62 % 0.0 mm 0 W/m2
21:45 14.1 °C 6.9 °C 1009.4 hPa ENE 12.9 km/h 19.3 km/h 62 % 0.0 mm 0 W/m2
21:50 14.1 °C 6.9 °C 1009.4 hPa ESE 4.8 km/h 17.7 km/h 62 % 0.0 mm 0 W/m2
21:55 13.8 °C 6.9 °C 1009.4 hPa NE 6.4 km/h 16.1 km/h 63 % 0.0 mm 0 W/m2
22:00 13.7 °C 6.7 °C 1009.4 hPa ESE 8.0 km/h 17.7 km/h 63 % 0.0 mm 0 W/m2
22:05 13.6 °C 6.9 °C 1009.4 hPa East 12.9 km/h 17.7 km/h 64 % 0.0 mm 0 W/m2
22:15 13.3 °C 6.8 °C 1009.4 hPa ENE 6.4 km/h 17.7 km/h 65 % 0.0 mm 0 W/m2
22:20 13.2 °C 7.0 °C 1009.4 hPa ESE 3.2 km/h 16.1 km/h 66 % 0.0 mm 0 W/m2
22:25 13.1 °C 6.9 °C 1009.4 hPa ENE 12.9 km/h 16.1 km/h 66 % 0.0 mm 0 W/m2
22:30 13.2 °C 7.0 °C 1009.4 hPa ENE 4.8 km/h 17.7 km/h 66 % 0.0 mm 0 W/m2
22:35 13.1 °C 6.9 °C 1009.4 hPa East 4.8 km/h 17.7 km/h 66 % 0.0 mm 0 W/m2
22:40 12.9 °C 6.7 °C 1009.4 hPa ENE 3.2 km/h 14.5 km/h 66 % 0.0 mm 0 W/m2
22:45 12.8 °C 6.9 °C 1009.4 hPa East 8.0 km/h 17.7 km/h 67 % 0.0 mm 0 W/m2
22:50 12.8 °C 6.8 °C 1009.4 hPa East 6.4 km/h 17.7 km/h 67 % 0.0 mm 0 W/m2
22:55 12.6 °C 6.8 °C 1009.7 hPa East 3.2 km/h 14.5 km/h 68 % 0.0 mm 0 W/m2
23:00 12.3 °C 6.8 °C 1009.7 hPa ENE 4.8 km/h 14.5 km/h 69 % 0.0 mm 0 W/m2
23:05 12.3 °C 6.8 °C 1009.7 hPa ENE 4.8 km/h 14.5 km/h 69 % 0.0 mm 0 W/m2
23:10 12.2 °C 6.7 °C 1009.7 hPa East 1.6 km/h 11.3 km/h 69 % 0.0 mm 0 W/m2
23:15 12.1 °C 6.8 °C 1009.7 hPa East 4.8 km/h 11.3 km/h 70 % 0.0 mm 0 W/m2
23:20 11.9 °C 6.8 °C 1009.7 hPa East 1.6 km/h 11.3 km/h 71 % 0.0 mm 0 W/m2
23:25 11.6 °C 6.7 °C 1009.7 hPa Calm   11.3 km/h 72 % 0.0 mm 0 W/m2
23:30 11.2 °C 6.5 °C 1009.7 hPa ENE 1.6 km/h 4.8 km/h 73 % 0.0 mm 0 W/m2
23:35 10.8 °C 6.6 °C 1009.7 hPa ENE 3.2 km/h 4.8 km/h 75 % 0.0 mm 0 W/m2
23:40 10.9 °C 6.7 °C 1009.7 hPa Calm   6.4 km/h 75 % 0.0 mm 0 W/m2
23:45 10.8 °C 6.5 °C 1009.4 hPa Calm   6.4 km/h 75 % 0.0 mm 0 W/m2
23:50 10.5 °C 6.4 °C 1009.4 hPa ENE 1.6 km/h 6.4 km/h 76 % 0.0 mm 0 W/m2
23:55 10.1 °C 6.3 °C 1009.4 hPa East 3.2 km/h 6.4 km/h 77 % 0.0 mm 0 W/m2
Avec l'autorisation de Weather Underground - 1.75 mb